Weather History for Rensselaer, IN

Change the Weather History Date:

Sunday, December 2, 2012

  Actual Average (KVPZ) Record (KVPZ)
Temperature  
Mean Temperature 52 °F 33 °F  
Max Temperature 60 °F 40 °F 62 °F (2012)
Min Temperature 44 °F 26 °F 13 °F (2005)
Degree Days  
Heating Degree Days 13 32  
Month to date heating degree days 64  
Since 1 July heating degree days 1322  
Cooling Degree Days 0 0  
Month to date cooling degree days 0  
Year to date cooling degree days 713  
Growing Degree Days 2 (Base 50)    
Moisture  
Dew Point 51 °F    
Average Humidity 86    
Maximum Humidity 100    
Minimum Humidity 59    
Precipitation  
Precipitation 0.01 in 0.09 in 0.23 in (2007)
Month to date precipitation 0.18  
Year to date precipitation 35.51  
Sea Level Pressure  
Sea Level Pressure 30.00 in    
Wind  
Wind Speed 12 mph (SSW)    
Max Wind Speed 22 mph    
Max Gust Speed 26 mph    
Visibility 7 miles    
Events Fog , Rain    
T = Trace of Precipitation, MM = Missing Value Source: NWS Daily Summary

Daily Weather History Graph

Daily Weather History Graph

Search for Another Location

Airport:

Trip Planner

Search our weather history database for the weather conditions in past years. The results will help you decide how hot, cold, wet, or windy it might be!

Date:

Astronomy

Dec. 02, 2012 Rise Set
Actual Time 6:55 AM CST 4:20 PM CST
Civil Twilight 6:24 AM CST 4:51 PM CST
Nautical Twilight 5:50 AM CST 5:25 PM CST
Astronomical Twilight 5:17 AM CST 5:58 PM CST
Moon 8:08 PM CST (12/2) 9:44 AM CST (12/2)
Length of Visible Light 10h 26m
Length of Day
9h 25m
Waning Gibbous, 85% of the Moon is Illuminated
Dec 2
Waning Gibbous
Dec 6
Last Quarter
Dec 13
New
Dec 19
First Quarter
Dec 28
Full

Hourly Weather History & Observations

Time (CST) Temp. Windchill Dew Point Humidity Pressure Visibility Wind Dir Wind Speed Gust Speed Precip Events Conditions
12:15 AM 59.0 °F - 44.6 °F 59% 29.95 in 10.0 mi South 21.9 mph 26.5 mph N/A   Overcast
12:35 AM 59.0 °F - 44.6 °F 59% 29.95 in 10.0 mi South 20.7 mph 26.5 mph N/A   Overcast
12:55 AM 59.0 °F - 46.4 °F 63% 29.94 in 10.0 mi South 18.4 mph 25.3 mph N/A   Overcast
1:15 AM 59.0 °F - 46.4 °F 63% 29.94 in 10.0 mi SSW 16.1 mph 24.2 mph N/A   Overcast
1:35 AM 59.0 °F - 46.4 °F 63% 29.94 in 10.0 mi SSW 16.1 mph - N/A   Overcast
1:55 AM 59.0 °F - 46.4 °F 63% 29.93 in 10.0 mi South 16.1 mph 25.3 mph N/A   Overcast
2:15 AM 59.0 °F - 46.4 °F 63% 29.94 in 10.0 mi SSW 18.4 mph 25.3 mph N/A   Overcast
2:35 AM 57.2 °F - 50.0 °F 77% 29.94 in 10.0 mi SSW 19.6 mph 24.2 mph N/A Rain Rain
2:55 AM 55.4 °F - 50.0 °F 82% 29.94 in 7.0 mi SSW 15.0 mph - N/A Rain Light Rain
3:15 AM 55.4 °F - 50.0 °F 82% 29.93 in 10.0 mi SSW 15.0 mph - 0.01 in Rain Light Rain
3:35 AM 55.4 °F - 51.8 °F 88% 29.93 in 10.0 mi SSW 15.0 mph 20.7 mph 0.01 in   Overcast
3:55 AM 55.4 °F - 51.8 °F 88% 29.93 in 10.0 mi SSW 16.1 mph 21.9 mph 0.01 in   Overcast
4:15 AM 55.4 °F - 51.8 °F 88% 29.93 in 10.0 mi SSW 13.8 mph 19.6 mph N/A   Overcast
4:35 AM 53.6 °F - 51.8 °F 94% 29.93 in 10.0 mi SSW 11.5 mph - N/A Rain Light Rain
4:55 AM 53.6 °F - 51.8 °F 94% 29.93 in 10.0 mi SSW 11.5 mph - N/A   Overcast
5:15 AM 53.6 °F - 51.8 °F 94% 29.93 in 10.0 mi SSW 12.7 mph 18.4 mph N/A Rain Rain
5:35 AM 55.4 °F - 51.8 °F 88% 29.93 in 10.0 mi SSW 13.8 mph 20.7 mph N/A   Overcast
5:55 AM 55.4 °F - 51.8 °F 88% 29.94 in 10.0 mi SSW 12.7 mph 17.3 mph N/A   Overcast
6:15 AM 55.4 °F - 51.8 °F 88% 29.94 in 10.0 mi SSW 12.7 mph - N/A   Overcast
6:35 AM 55.4 °F - 51.8 °F 88% 29.94 in 10.0 mi SW 12.7 mph - N/A   Overcast
7:15 AM 55.4 °F - 51.8 °F 88% 29.96 in 10.0 mi SSW 11.5 mph - N/A   Overcast
7:35 AM 55.4 °F - 51.8 °F 88% 29.96 in 10.0 mi SSW 12.7 mph - N/A   Overcast
7:55 AM 55.4 °F - 51.8 °F 88% 29.97 in 10.0 mi SSW 11.5 mph - N/A   Overcast
8:15 AM 55.4 °F - 51.8 °F 88% 29.98 in 10.0 mi SW 12.7 mph - N/A   Overcast
8:35 AM 55.4 °F - 51.8 °F 88% 29.98 in 10.0 mi SW 13.8 mph - N/A   Overcast
8:55 AM 55.4 °F - 51.8 °F 88% 29.98 in 10.0 mi SW 13.8 mph - N/A   Overcast
9:15 AM 57.2 °F - 53.6 °F 88% 29.98 in 10.0 mi SW 12.7 mph - N/A   Overcast
9:35 AM 57.2 °F - 53.6 °F 88% 29.99 in 10.0 mi SW 12.7 mph - N/A   Overcast
9:55 AM 59.0 °F - 53.6 °F 82% 30.00 in 10.0 mi SW 15.0 mph 18.4 mph N/A   Overcast
10:15 AM 59.0 °F - 53.6 °F 82% 30.00 in 10.0 mi SW 11.5 mph - N/A   Overcast
10:35 AM 59.0 °F - 53.6 °F 82% 29.99 in 10.0 mi SW 11.5 mph - N/A   Overcast
10:55 AM 59.0 °F - 53.6 °F 82% 29.99 in 10.0 mi SW 9.2 mph - N/A   Overcast
11:15 AM 59.0 °F - 53.6 °F 82% 29.99 in 10.0 mi WSW 10.4 mph - N/A   Overcast
11:35 AM 60.8 °F - 53.6 °F 77% 29.99 in 10.0 mi WSW 10.4 mph - N/A   Overcast
11:55 AM 60.8 °F - 55.4 °F 82% 29.98 in 10.0 mi SW 10.4 mph - N/A   Overcast
12:15 PM 60.8 °F - 55.4 °F 82% 29.98 in 10.0 mi WSW 10.4 mph - N/A   Overcast
12:35 PM 60.8 °F - 55.4 °F 82% 29.99 in 10.0 mi WSW 9.2 mph - N/A   Overcast
12:55 PM 60.8 °F - 55.4 °F 82% 29.99 in 10.0 mi WSW 6.9 mph - N/A   Overcast
1:15 PM 60.8 °F - 55.4 °F 82% 29.99 in 10.0 mi WSW 6.9 mph - N/A   Overcast
1:35 PM 60.8 °F - 55.4 °F 82% 29.99 in 7.0 mi WSW 5.8 mph - N/A   Overcast
1:55 PM 60.8 °F - 55.4 °F 82% 29.99 in 7.0 mi SW 6.9 mph - N/A   Overcast
2:15 PM 60.8 °F - 55.4 °F 82% 29.99 in 7.0 mi WSW 5.8 mph - N/A   Overcast
2:35 PM 60.8 °F - 55.4 °F 82% 29.99 in 7.0 mi SW 9.2 mph - N/A   Overcast
2:55 PM 60.8 °F - 55.4 °F 82% 30.00 in 7.0 mi SW 5.8 mph - N/A   Mostly Cloudy
3:15 PM 60.8 °F - 55.4 °F 82% 30.00 in 7.0 mi SW 6.9 mph - N/A   Overcast
3:35 PM 60.8 °F - 55.4 °F 82% 30.01 in 7.0 mi SW 4.6 mph - N/A   Overcast
3:55 PM 60.8 °F - 55.4 °F 82% 30.01 in 7.0 mi SSW 3.5 mph - N/A   Overcast
4:15 PM 59.0 °F - 55.4 °F 88% 30.01 in 7.0 mi Calm Calm - N/A   Overcast
4:35 PM 59.0 °F - 53.6 °F 82% 30.02 in 7.0 mi Calm Calm - N/A   Overcast
4:55 PM 55.4 °F - 53.6 °F 94% 30.02 in 5.0 mi Calm Calm - N/A   Scattered Clouds
5:15 PM 55.4 °F - 53.6 °F 94% 30.02 in 4.0 mi Calm Calm - N/A   Mostly Cloudy
5:35 PM 53.6 °F - 51.8 °F 94% 30.03 in 1.2 mi Calm Calm - N/A   Scattered Clouds
6:15 PM 53.6 °F - 53.6 °F 100% 30.06 in 1.8 mi Calm Calm - N/A   Scattered Clouds
6:35 PM 53.6 °F - 53.6 °F 100% 30.06 in 1.8 mi Calm Calm - N/A   Mostly Cloudy
6:55 PM 51.8 °F - 51.8 °F 100% 30.06 in 0.5 mi Calm Calm - N/A Fog Fog
7:15 PM 48.2 °F - 46.4 °F 93% 30.07 in 0.2 mi Calm Calm - N/A Fog Fog
7:55 PM 50.0 °F - 50.0 °F 100% 30.07 in 0.2 mi Calm Calm - N/A Fog Fog
8:15 PM 50.0 °F - 48.2 °F 94% 30.07 in 0.2 mi Calm Calm - N/A Fog Fog
8:35 PM 50.0 °F - 48.2 °F 94% 30.08 in 0.2 mi Calm Calm - N/A Fog Fog
8:55 PM 50.0 °F - 50.0 °F 100% 30.07 in 0.2 mi Calm Calm - N/A Fog Fog
9:15 PM 46.4 °F 45.2 °F 46.4 °F 100% 30.07 in 0.2 mi ESE 3.5 mph - N/A Fog Fog
9:35 PM 46.4 °F - 46.4 °F 100% 30.07 in 0.2 mi Calm Calm - N/A Fog Fog
9:55 PM 46.4 °F 45.2 °F 46.4 °F 100% 30.07 in 0.2 mi SSE 3.5 mph - N/A Fog Fog
10:15 PM 50.0 °F - 48.2 °F 94% 30.07 in 0.2 mi Calm Calm - N/A Fog Fog
10:35 PM 48.2 °F - 48.2 °F 100% 30.07 in 0.2 mi SE 3.5 mph - N/A Fog Fog
10:55 PM 46.4 °F 45.2 °F 46.4 °F 100% 30.07 in 0.2 mi ESE 3.5 mph - N/A Fog Fog
11:15 PM 44.6 °F 43.1 °F 44.6 °F 100% 30.07 in 0.2 mi SE 3.5 mph - N/A Fog Fog
11:35 PM 44.6 °F 43.1 °F 44.6 °F 100% 30.07 in 0.2 mi ESE 3.5 mph - N/A Fog Fog
11:55 PM 48.2 °F - 48.2 °F 100% 30.06 in 0.5 mi SSE 4.6 mph - N/A Fog Fog